軌道要素
Epoch 2022 Jan. 21.0 TT = JDT 2459600.5
T 2021 July 24.48019 TT Rudenko
q 1.9384083 (2000.0) P Q
n 0.12086296 Peri. 51.52574 +0.69307546 +0.62518394
a 4.0514198 Node 266.66103 -0.72084191 +0.59707593
e 0.5215484 Incl. 21.06860 -0.00577411 +0.50263842
P 8.15
From 135 observations 2021 May 11-Nov. 2, mean residual 0".5.
|